sat.trackr.live / text

‹ back to catalog

STARLINK-32940

NORAD 63568 · 2025-075W

PAYLOAD ACTIVE UNKNOWN

§ Identity

Operator
Country
US
Launch date
2025-04-13
Launch site
AFETR
Launch vehicle
Mass (kg)
RCS (m²)

Purposes: comms

External: N2YO · Heavens-Above · Gunter

§ Orbital elements

Epoch: 2026-05-25T03:54:05.313600Z

Period
94.27 min
Inclination
42.9987°
Eccentricity
0.0003389
Mean motion
15.27602908 rev/d
Perigee alt
480.7 km
Apogee alt
485.3 km
Semi-major
6,861.1 km
B*
7.3396e-4
RAAN
198.6633°
Arg perigee
290.2514°
Mean anomaly
69.7973°
Rev number
6,362

§ Raw data

STARLINK-329401 63568U 25075W   26145.16256150  .00020006  00000+0  73396-3 0  99992 63568  42.9987 198.6633 0003389 290.2514  69.7973 15.27602908 63629

JSON: /api/v1/satellites/63568 · /tle

For live sub-satellite position, see the globe view (requires WebGL).

§ Visibility from observer

Set your observer location to see the next 7 days of passes ≥ 10°. The values pass through the URL so the page stays shareable.

No JS? Fill the form by hand. The geolocation button needs JavaScript.